Hlavní strana
METAR-TAF:

METAR-TAF

Letiště :

Bowman Field

Louisville, Kentucky, Spojené státy americké

zeměpisná šířka: 38-13-40N, zeměpisná délka: 085-39-49W, výška: 166 m

Aktuální stav počasí

Zpráva byla vytvořena před 1 hodinou a 5 minutami, v 12:53 UTC
Východojihovýchodní vítr 3 kt
Teplota 4°C
Vlhkost vzduchu 93%
Tlak 1025 hPa
Viditelnost: 16.1 km
Jasno

METAR: KLOU 191253Z 12003KT 10SM CLR 04/03 A3028 RMK AO2 SLP258 T00440028

Čas: 09:58 (13:58 UTC)


TAF: chybějící

Stav a předpovědi počasí z více než 4 000 letišť (zprávy METAR a TAF).

Červené a žluté tečky na mapě představují dostupné meteorologické stanice.

Když kurzor umístíte na tečku, zobrazí se název stanice.

Pak kliknutím zobrazíte stav a předpověď počasí.

Chcete-li změnit mapu, kliknutím na zelené tlačítko se znaménkem +mapu přiblížíte, kliknutím na zelené tlačítko se znaménkem – mapu oddálíte a kliknutím na zelené šipky přejdete na sousední mapy.


METAR-TAF: